FENGYUN 1C DEB

Satellite information

Favourite Embed

Satellite Type and Status

DEBRISIN ORBIT

Key statistics

Satellite FENGYUN 1C DEB at a glance.

Uptime

9555

Days in orbit

Revolutions

≈ 14.5

Per day

Orbit

SSO

Sun Synchronous Orbit

Inclination

99.0

Latest

Satellite identification and parameters

Extended collection of information and parameters for FENGYUN 1C DEB.

Object identification

Identified? True

Debris? True

Object name: FENGYUN 1C DEB

International designator: 1999-025AXX

Object number (NORAD): 30885

Object ID (CCSDS): 30885

Country: PEOPLES REPUBLIC OF CHINA (PRC)

Current information (Y/N): Y

RCS size: SMALL

Orbital parameters

Period: 99.581 minutes

Inclination: 99.0373 deg

SMA: 7116.709 km

Apoapsis: 778.638 km

Periapsis: 698.509 km

RAAN: 16.5391 deg

Eccentricy: 0.0056296

Argument of periapsis: 337.2961 deg

Mean anomaly: 85.4619 deg

Mean motion: 14.4605225 rev/day

Mean motion (dot): 0.00005205 rev/day2

B* drag term: 0.0014445 1/REarth

Two-line elements (TLE)

Creation date: July 6, 2025, 4:10 a.m.

Reference frame: TEME

Reference center: EARTH

Epoch: July 5, 2025, 6:24 p.m. UTC

TLE line 0: 0 FENGYUN 1C DEB

TLE line 1: 1 30885U 99025AXX 25186.76708513 .00005205 00000-0 14445-2 0 9990

TLE line 2: 2 30885 99.0373 16.5391 0056296 337.2961 85.4619 14.46052250946631

Live tracking on map

Real-time ground track for satellite FENGYUN 1C DEB.

In-orbit conjunctions

A list of the most updated potential collisions computed for object FENGYUN 1C DEB.

Target Orbit TCA Probability of collision Miss distance Type
COSMOS 1275 DEB LEO 2024-11-14 23:24:01 0.0002767329 840.0 (m) DEBRIS
SL-8 R/B LEO 2024-09-29 10:03:08 0.0002976522 134.0 (m) ROCKET BODY

Associated space launch

Chinese polar orbiting meteorological satellite

FENGYUN 1C DEB was lifted into orbit during the mission ‘Long March 4B | Feng Yun 1C’, on board a Long March 4B space rocket.

The launch took place on May 10, 1999, 1:33 a.m. from Launch Complex 7.

For more information about the launch, click the button.

Launch to space Long March 4B | Feng Yun 1C
Long March 4B | Feng Yun 1C

Agency: N/A

Status: Launch Successful

Launch date: May 10, 1999, 1:33 a.m. UTC

Rocket: Long March 4B

Launch pad: Launch Complex 7

Location: Taiyuan Satellite Launch Center, People's Republic of China

...

Latest news about this satellite

There are no fresh news available about this satellite. Check back as we update our databases every day.


Newsletter sign-up

Weekly statistics, charts and insights to help you stay on top of the space industry.